Change the Weather History Date:

Friday, March 2, 2012

  Actual Average (KBLI) Record (KBLI)
Temperature  
Mean Temperature 40 °F 42 °F  
Max Temperature 42 °F 50 °F 61 °F (1990)
Min Temperature 39 °F 34 °F 20 °F (1989)
Degree Days  
Heating Degree Days 24 23  
Month to date heating degree days 46  
Cooling Degree Days 0 0  
Month to date cooling degree days 0  
Year to date cooling degree days 0  
Moisture  
Dew Point 38 °F    
Average Humidity 91    
Maximum Humidity 100    
Minimum Humidity 81    
Precipitation  
Precipitation 0.00 in 0.11 in 0.62 in (2014)
Month to date precipitation 0.22  
Year to date precipitation 7.91  
Sea Level Pressure  
Sea Level Pressure 30.33 in    
Wind  
Wind Speed 6 mph (South)    
Max Wind Speed 10 mph    
Max Gust Speed 20 mph    
Visibility 8 miles    
Events Rain    
T = Trace of Precipitation, MM = Missing Value Source: NWS Daily Summary

Daily Weather History Graph

Daily Weather History Graph

Search for Another Location

Airport or City:

Trip Planner

Search our weather history database for the weather conditions in past years. The results will help you decide how hot, cold, wet, or windy it might be!

Date:

Astronomy

Mar. 02, 2012 Rise Set
Actual Time 6:50 AM PST 5:57 PM PST
Civil Twilight 6:18 AM PST 6:29 PM PST
Nautical Twilight 5:42 AM PST 7:05 PM PST
Astronomical Twilight 5:05 AM PST 7:42 PM PST
Moon 11:52 AM PST (3/2) 3:07 AM PST (3/2)
Length of Visible Light 12h 10m
Length of Day
11h 07m
Waxing Gibbous, 67% of the Moon is Illuminated
Mar 2
Waxing Gibbous
Mar 8
Full
Mar 14
Last Quarter
Mar 22
New
Mar 30
First Quarter

Hourly Weather History & Observations

Time (PST) Temp. Windchill Dew Point Humidity Pressure Visibility Wind Dir Wind Speed Gust Speed Precip Events Conditions
12:15 AM 39.2 °F 35.9 °F 33.8 °F 81% 30.29 in 10.0 mi South 4.6 mph - N/A   Mostly Cloudy
12:55 AM 39.2 °F 34.2 °F 35.6 °F 87% 30.29 in 10.0 mi South 6.9 mph - N/A   Overcast
1:15 AM 39.2 °F 35.9 °F 35.6 °F 87% 30.31 in 10.0 mi South 4.6 mph - N/A   Mostly Cloudy
1:35 AM 39.2 °F 34.2 °F 35.6 °F 87% 30.32 in 10.0 mi South 6.9 mph - N/A   Scattered Clouds
1:55 AM 39.2 °F 33.0 °F 35.6 °F 87% 30.32 in 10.0 mi South 9.2 mph - N/A   Scattered Clouds
2:15 AM 39.2 °F 33.6 °F 35.6 °F 87% 30.32 in 10.0 mi South 8.1 mph - N/A   Mostly Cloudy
3:15 AM 41.0 °F 35.8 °F 35.6 °F 81% 30.33 in 10.0 mi SSW 8.1 mph - N/A   Mostly Cloudy
3:35 AM 41.0 °F 35.8 °F 35.6 °F 81% 30.33 in 10.0 mi South 8.1 mph - N/A   Overcast
3:55 AM 41.0 °F 37.1 °F 35.6 °F 81% 30.33 in 10.0 mi South 5.8 mph - N/A   Mostly Cloudy
4:15 AM 41.0 °F 35.8 °F 35.6 °F 81% 30.33 in 10.0 mi SSW 8.1 mph - N/A   Mostly Cloudy
4:55 AM 41.0 °F 35.2 °F 37.4 °F 87% 30.33 in 10.0 mi SSW 9.2 mph 16.1 mph N/A   Mostly Cloudy
5:15 AM 41.0 °F 36.4 °F 37.4 °F 87% 30.34 in 8.0 mi SSW 6.9 mph - N/A   Mostly Cloudy
5:35 AM 41.0 °F 38.0 °F 37.4 °F 87% 30.35 in 7.0 mi South 4.6 mph - N/A   Overcast
5:55 AM 41.0 °F 37.1 °F 37.4 °F 87% 30.35 in 5.0 mi SSW 5.8 mph - N/A   Mostly Cloudy
6:35 AM 39.2 °F - 37.4 °F 93% 30.35 in 4.0 mi Calm Calm - N/A   Mostly Cloudy
6:55 AM 39.2 °F 37.0 °F 37.4 °F 93% 30.36 in 8.0 mi South 3.5 mph - N/A Rain Light Rain
7:15 AM 39.2 °F 37.0 °F 39.2 °F 100% 30.35 in 5.0 mi South 3.5 mph - N/A Rain Light Rain
7:35 AM 39.2 °F - 37.4 °F 93% 30.36 in 10.0 mi Calm Calm - N/A   Partly Cloudy
7:55 AM 39.2 °F - 37.4 °F 93% 30.35 in 10.0 mi Calm Calm - N/A   Partly Cloudy
8:15 AM 39.2 °F - 37.4 °F 93% 30.35 in 10.0 mi Calm Calm - N/A   Partly Cloudy
8:35 AM 39.2 °F 37.0 °F 37.4 °F 93% 30.35 in 9.0 mi SE 3.5 mph - N/A Rain Light Rain
8:55 AM 39.2 °F 35.9 °F 37.4 °F 93% 30.35 in 10.0 mi South 4.6 mph - N/A   Partly Cloudy
9:15 AM 39.2 °F 35.0 °F 37.4 °F 93% 30.35 in 10.0 mi South 5.8 mph - N/A   Mostly Cloudy
9:35 AM 41.0 °F 35.8 °F 37.4 °F 87% 30.35 in 10.0 mi South 8.1 mph 16.1 mph N/A   Overcast
9:55 AM 41.0 °F 35.2 °F 37.4 °F 87% 30.35 in 10.0 mi South 9.2 mph 18.4 mph N/A   Overcast
10:35 AM 41.0 °F 35.8 °F 37.4 °F 87% 30.35 in 10.0 mi South 8.1 mph - N/A   Overcast
10:55 AM 41.0 °F 35.2 °F 37.4 °F 87% 30.35 in 10.0 mi South 9.2 mph - N/A   Overcast
11:15 AM 41.0 °F 35.2 °F 37.4 °F 87% 30.35 in 10.0 mi South 9.2 mph - N/A   Overcast
11:35 AM 41.0 °F 35.8 °F 37.4 °F 87% 30.35 in 10.0 mi South 8.1 mph - N/A   Overcast
11:55 AM 42.8 °F 38.6 °F 37.4 °F 81% 30.35 in 10.0 mi South 6.9 mph - N/A   Overcast
12:15 PM 41.0 °F 36.4 °F 37.4 °F 87% 30.35 in 9.0 mi South 6.9 mph - N/A Rain Light Rain
12:55 PM 41.0 °F 36.4 °F 37.4 °F 87% 30.34 in 9.0 mi South 6.9 mph - N/A   Overcast
1:15 PM 41.0 °F 36.4 °F 37.4 °F 87% 30.34 in 7.0 mi South 6.9 mph - N/A Rain Light Rain
1:35 PM 41.0 °F 36.4 °F 39.2 °F 93% 30.33 in 5.0 mi South 6.9 mph - N/A Rain Light Rain
1:55 PM 41.0 °F 36.4 °F 39.2 °F 93% 30.34 in 5.0 mi South 6.9 mph - N/A Rain Light Rain
2:15 PM 41.0 °F 38.0 °F 39.2 °F 93% 30.33 in 5.0 mi South 4.6 mph - N/A Rain Light Rain
2:35 PM 41.0 °F 38.0 °F 39.2 °F 93% 30.33 in 8.0 mi South 4.6 mph - N/A Rain Light Rain
2:55 PM 41.0 °F 36.4 °F 39.2 °F 93% 30.33 in 7.0 mi South 6.9 mph - N/A Rain Light Rain
3:15 PM 41.0 °F 37.1 °F 39.2 °F 93% 30.33 in 4.0 mi South 5.8 mph - N/A Rain Light Rain
3:35 PM 41.0 °F 38.0 °F 39.2 °F 93% 30.32 in 5.0 mi South 4.6 mph - N/A Rain Light Rain
3:55 PM 41.0 °F 37.1 °F 39.2 °F 93% 30.32 in 7.0 mi SSE 5.8 mph - N/A Rain Light Rain
4:15 PM 41.0 °F 37.1 °F 39.2 °F 93% 30.32 in 9.0 mi South 5.8 mph - N/A Rain Light Rain
4:35 PM 41.0 °F 35.2 °F 39.2 °F 93% 30.31 in 9.0 mi South 9.2 mph - N/A   Overcast
4:55 PM 41.0 °F 36.4 °F 39.2 °F 93% 30.31 in 3.0 mi South 6.9 mph - N/A Rain Light Rain
5:15 PM 41.0 °F 36.4 °F 39.2 °F 93% 30.31 in 5.0 mi South 6.9 mph - N/A Rain Light Rain
5:35 PM 41.0 °F 35.8 °F 39.2 °F 93% 30.30 in 6.0 mi South 8.1 mph - N/A   Overcast
5:55 PM 41.0 °F 35.8 °F 39.2 °F 93% 30.30 in 7.0 mi South 8.1 mph - N/A   Overcast
6:15 PM 41.0 °F 35.2 °F 39.2 °F 93% 30.30 in 5.0 mi South 9.2 mph - N/A Rain Light Rain
6:35 PM 41.0 °F 35.2 °F 39.2 °F 93% 30.30 in 7.0 mi South 9.2 mph - N/A Rain Light Rain
6:55 PM 41.0 °F 34.7 °F 39.2 °F 93% 30.30 in 7.0 mi South 10.4 mph 16.1 mph N/A Rain Light Rain
7:15 PM 41.0 °F 34.7 °F 39.2 °F 93% 30.29 in 8.0 mi South 10.4 mph - N/A Rain Light Rain
7:35 PM 41.0 °F 35.2 °F 39.2 °F 93% 30.30 in 7.0 mi South 9.2 mph 19.6 mph N/A Rain Light Rain
7:55 PM 41.0 °F 36.4 °F 41.0 °F 100% 30.30 in 4.0 mi South 6.9 mph - N/A Rain Light Rain
8:15 PM 41.0 °F 34.7 °F 41.0 °F 100% 30.30 in 3.0 mi South 10.4 mph 16.1 mph N/A Rain Light Rain
8:35 PM 41.0 °F 34.7 °F 41.0 °F 100% 30.30 in 3.0 mi South 10.4 mph - N/A   Overcast
8:55 PM 41.0 °F 34.7 °F 41.0 °F 100% 30.31 in 4.0 mi South 10.4 mph - N/A Rain Light Rain
9:15 PM 41.0 °F 35.2 °F 41.0 °F 100% 30.31 in 4.0 mi South 9.2 mph - N/A Rain Light Rain
9:35 PM 41.0 °F 35.2 °F 41.0 °F 100% 30.31 in 6.0 mi South 9.2 mph - N/A   Overcast
9:55 PM 41.0 °F 34.7 °F 41.0 °F 100% 30.31 in 4.0 mi SSW 10.4 mph - N/A   Overcast
10:15 PM 41.0 °F 35.2 °F 41.0 °F 100% 30.30 in 4.0 mi South 9.2 mph - N/A Rain Light Rain
10:55 PM 41.0 °F 34.7 °F 41.0 °F 100% 30.29 in 5.0 mi South 10.4 mph - 0.01 in   Overcast
11:15 PM 41.0 °F 35.2 °F 41.0 °F 100% 30.29 in 5.0 mi South 9.2 mph - N/A Rain Light Rain
11:55 PM 41.0 °F 35.8 °F 41.0 °F 100% 30.29 in 2.5 mi South 8.1 mph - N/A   Overcast